Flag for Germany Weather past 2 weeks in Lehrte, Lower Saxony, Germany

Now
31 °F

Partly sunny.


Feels Like: 31 °F
Forecast: 27 / 32 °F
Wind: 2 mph from West

Location: Hannover

Current Time: Dec 26, 2014 at 11:52:30 AM

Latest Report: Dec 26, 2014 at 11:00 AM


Visibility: 9 mi

Pressure: 30.39 "Hg

Humidity: 90%

Dew point: 28 °F

Location of LehrteLocation

Historic Weather in Lehrte — Graph

°F

Lehrte temperature yesterday

Maximum temperature yesterday: 44 °F (at 2:00 PM)
Minimum temperature yesterday: 35 °F (at 9:00 PM)
Average temperature yesterday: 40 °F

Past Weeks' High & Low Weather Summary

 TemperatureHumidityPressure
High54 °F (Dec 18, 8:00 PM)97% (Dec 14, 9:00 AM)30.39 "Hg (Dec 14, 9:00 AM)
Low28 °F (Dec 26, 9:00 AM)65% (Dec 25, 4:00 PM)29.32 "Hg (Dec 12, 2:00 PM)
Average43 °F85%29.88 "Hg
* Reported Dec 11 11:00 AM — Dec 26 11:00 AM, Lehrte, Weather by CustomWeather, © 2014

Note: Actual official high and low records may vary slightly from our data, if they occured in-between our weather recording intervals... More about our weather records

Advertising

Lehrte weather history for previous 24 hours

 ConditionsComfort  
Time TempWeatherWind HumidityBarometerVisibility
11:00 AM
Dec 26
31 °FPartly sunny.2 mph90%30.39 "Hg9 mi
9:00 AM28 °FScattered clouds.1 mph93%30.39 "Hg19 mi
8:00 AM28 °FPassing clouds.1 mph90%30.37 "Hg19 mi
7:00 AM30 °FPassing clouds.1 mph87%30.36 "Hg19 mi
6:00 AM30 °FPassing clouds.2 mph84%30.35 "Hg19 mi
5:00 AM31 °FOvercast.2 mph86%30.35 "Hg19 mi
3:00 AM32 °FPassing clouds.2 mph85%30.33 "Hg19 mi
2:00 AM34 °FOvercast.2 mph85%30.33 "Hg19 mi
1:00 AM35 °FOvercast.2 mph81%30.32 "Hg19 mi
12:00 AM35 °FOvercast.3 mph87%30.31 "Hg19 mi
11:00 PM
Dec 25
35 °FOvercast.3 mph87%30.29 "Hg19 mi
9:00 PM35 °FPassing clouds.7 mph88%30.24 "Hg19 mi
8:00 PM36 °FLight rain. Low clouds.8 mph89%30.22 "Hg12 mi
7:00 PM37 °FLight rain. Overcast.9 mph88%30.18 "Hg12 mi
6:00 PM38 °FLight rain. Overcast.10 mph88%30.13 "Hg12 mi
5:00 PM41 °FSprinkles. Overcast.12 mph67%30.09 "Hg12 mi
4:00 PM42 °FScattered clouds.13 mph65%30.08 "Hg16 mi
3:00 PM43 °FSprinkles. Partly sunny.9 mph67%30.06 "Hg16 mi
2:00 PM44 °FPartly sunny.10 mph71%30.05 "Hg16 mi
1:00 PM44 °FPartly sunny.10 mph76%30.05 "Hg16 mi
12:00 PM43 °FOvercast.10 mph77%30.04 "Hg16 mi
11:00 AM43 °FOvercast.9 mph80%30.03 "Hg16 mi
Weather by CustomWeather, © 2014

See weather overviewHow to use our weather pages